Home   Weather   Barsinghausen   Past weeks

Flag for Germany Past Weather in Barsinghausen, Lower Saxony, Germany — Yesterday and Last 2 Weeks

Now
39 °F

Chilly.


Feels Like: 34 °F
Forecast: 25 / 29 °F
Wind: 8 mph from Southeast

Location: Wunstorf Airport

Current Time: Jan 21, 2017 at 4:49:18 pm

Latest Report: Jan 21, 2017 at 3:20 pm


Visibility: N/A

Pressure: 30.42 "Hg

Humidity: 70%

Dew Point: 30 °F

Location of BarsinghausenLocation

Past Weather in Barsinghausen — Graph

°F

Barsinghausen Temperature Yesterday

Maximum temperature yesterday: 39 °F (at 1:20 pm)
Minimum temperature yesterday: 28 °F (at 1:20 am)
Average temperature yesterday: 32 °F

High & Low Weather Summary for the Past Weeks

 TemperatureHumidityPressure
High45 °F (Jan 11, 3:10 pm)100% (Jan 7, 5:20 pm)30.74 "Hg (Jan 7, 5:20 pm)
Low18 °F (Jan 6, 5:20 pm)45% (Jan 19, 3:20 pm)28.94 "Hg (Jan 13, 4:20 am)
Average32 °F86%30.15 "Hg
* Reported Jan 6 3:20 pm — Jan 21 3:20 pm, Barsinghausen, Weather by CustomWeather, © 2017

Note: Actual official high and low records may vary slightly from our data, if they occured in-between our weather recording intervals... More about our weather records

Advertising

Barsinghausen Weather History for the Previous 24 Hours

Scroll right to see more
 ConditionsComfort  
Time TempWeatherWind HumidityBarometerVisibility
3:20 pm
Sat, Jan 21
39 °FChilly.8 mph70%30.42 "HgN/A
2:20 pm39 °FChilly.8 mph70%30.45 "HgN/A
1:20 pm39 °FChilly.10 mph70%30.45 "HgN/A
12:20 pm37 °FChilly.13 mph75%30.48 "HgN/A
11:20 am37 °FChilly.7 mph75%30.51 "HgN/A
10:20 am34 °FChilly.6 mph87%30.51 "HgN/A
9:20 am32 °FChilly.3 mph93%30.51 "HgN/A
8:20 am32 °FChilly.5 mph93%30.48 "HgN/A
7:20 am34 °FChilly.1 mph93%30.48 "HgN/A
6:20 am34 °FChilly.2 mph93%30.51 "HgN/A
5:20 am34 °FChilly.1 mph93%30.51 "HgN/A
4:20 am34 °FChilly.2 mph93%30.51 "HgN/A
3:20 am34 °FChilly.2 mph93%30.51 "HgN/A
2:20 am34 °FChilly.No wind93%30.51 "HgN/A
1:20 am34 °FChilly.2 mph93%30.54 "HgN/A
12:20 am34 °FChilly.1 mph93%30.54 "HgN/A
11:20 pm
Fri, Jan 20
34 °FChilly.2 mph87%30.54 "HgN/A
10:20 pm34 °FChilly.2 mph87%30.54 "HgN/A
9:20 pm34 °FChilly.3 mph87%30.54 "HgN/A
8:20 pm32 °FChilly.6 mph93%30.54 "HgN/A
7:20 pm32 °FChilly.No wind93%30.57 "HgN/A
6:20 pm32 °FChilly.2 mph93%30.57 "HgN/A
5:20 pm32 °FPassing clouds.1 mph87%30.57 "HgN/A
4:20 pm37 °FScattered clouds.5 mph75%30.57 "HgN/A
Weather by CustomWeather, © 2017

See weather overviewHow to use our weather pages